| time (UTC) | temp F | wind direction | speed MPH | gust MPH | rain 1hr in | rain 24hr in | rain mn in | humidity % | barometer mb |
| 20260508193039 | 71 | 303 | 17.0 | 32.0 | 0.00 | 0.00 | 0.00 | 19 | 1009.3 |
| 20260508191546 | 70 | 266 | 17.0 | 23.0 | 0.00 | 0.00 | 0.00 | 20 | 1009.1 |
| 20260508190053 | 70 | 233 | 12.0 | 27.0 | 0.00 | 0.00 | 0.00 | 23 | 1009.6 |
| 20260508184540 | 70 | 291 | 17.0 | 31.0 | 0.00 | 0.00 | 0.00 | 25 | 1009.8 |
| 20260508183042 | 69 | 223 | 15.0 | 23.0 | 0.00 | 0.00 | 0.00 | 26 | 1010.0 |
| 20260508181544 | 68 | 329 | 13.0 | 22.0 | 0.00 | 0.00 | 0.00 | 27 | 1010.2 |
| 20260508180036 | 68 | 257 | 16.0 | 22.0 | 0.00 | 0.00 | 0.00 | 27 | 1010.4 |
| 20260508174541 | 67 | 238 | 12.0 | 19.0 | 0.00 | 0.00 | 0.00 | 29 | 1010.4 |
| 20260508173034 | 67 | 250 | 13.0 | 19.0 | 0.00 | 0.00 | 0.00 | 32 | 1010.7 |
| 20260508171541 | 66 | 279 | 8.0 | 17.0 | 0.00 | 0.00 | 0.00 | 35 | 1010.7 |
| 20260508170036 | 65 | 206 | 9.0 | 17.0 | 0.00 | 0.00 | 0.00 | 38 | 1011.1 |
| 20260508164536 | 64 | 258 | 9.0 | 18.0 | 0.00 | 0.00 | 0.00 | 41 | 1011.2 |
| 20260508163055 | 63 | 243 | 9.0 | 16.0 | 0.00 | 0.00 | 0.00 | 44 | 1011.4 |
| 20260508161551 | 62 | 225 | 8.0 | 19.0 | 0.00 | 0.00 | 0.00 | 47 | 1011.5 |
| 20260508160036 | 61 | 189 | 9.0 | 14.0 | 0.00 | 0.00 | 0.00 | 49 | 1011.7 |
| 20260508154538 | 60 | 240 | 8.0 | 15.0 | 0.00 | 0.00 | 0.00 | 51 | 1011.8 |
| 20260508153053 | 59 | 216 | 7.0 | 16.0 | 0.00 | 0.00 | 0.00 | 53 | 1012.0 |
| 20260508151537 | 58 | 198 | 8.0 | 13.0 | 0.00 | 0.00 | 0.00 | 56 | 1012.0 |
| 20260508150037 | 55 | 216 | 5.0 | 10.0 | 0.00 | 0.00 | 0.00 | 61 | 1012.2 |
| 20260508144537 | 53 | 230 | 5.0 | 13.0 | 0.00 | 0.00 | 0.00 | 64 | 1012.2 |
| 20260508143101 | 52 | 202 | 11.0 | 17.0 | 0.00 | 0.00 | 0.00 | 67 | 1012.4 |
| 20260508141540 | 50 | 184 | 8.0 | 15.0 | 0.00 | 0.00 | 0.00 | 67 | 1012.5 |
| 20260508140038 | 47 | 189 | 9.0 | 12.0 | 0.00 | 0.00 | 0.00 | 67 | 1012.5 |
| 20260508134539 | 46 | 209 | 9.0 | 13.0 | 0.00 | 0.00 | 0.00 | 64 | 1012.5 |
| 20260508133035 | 45 | 241 | 2.0 | 4.0 | 0.00 | 0.00 | 0.00 | 65 | 1012.4 |
| 20260508131543 | 42 | 0 | 0.0 | 0.0 | 0.00 | 0.00 | 0.00 | 65 | 1012.3 |
| 20260508130040 | 41 | 0 | 0.0 | 0.0 | 0.00 | 0.00 | 0.00 | 65 | 1012.3 |
| 20260508124538 | 40 | 0 | 0.0 | 1.0 | 0.00 | 0.00 | 0.00 | 65 | 1012.5 |
| 20260508123039 | 40 | 0 | 0.0 | 2.0 | 0.00 | 0.00 | 0.00 | 63 | 1012.5 |
| 20260508121537 | 41 | 241 | 1.0 | 5.0 | 0.00 | 0.00 | 0.00 | 64 | 1012.3 |
| 20260508120037 | 43 | 214 | 1.0 | 6.0 | 0.00 | 0.00 | 0.00 | 65 | 1012.3 |
| 20260508114539 | 44 | 247 | 3.0 | 5.0 | 0.00 | 0.00 | 0.00 | 61 | 1012.4 |
| 20260508113039 | 46 | 247 | 2.0 | 4.0 | 0.00 | 0.00 | 0.00 | 60 | 1012.3 |
| 20260508111540 | 47 | 247 | 3.0 | 5.0 | 0.00 | 0.00 | 0.00 | 60 | 1012.2 |
| 20260508110037 | 47 | 0 | 0.0 | 1.0 | 0.00 | 0.00 | 0.00 | 58 | 1012.5 |
| 20260508104537 | 47 | 247 | 2.0 | 5.0 | 0.00 | 0.00 | 0.00 | 58 | 1012.5 |
| 20260508103044 | 47 | 254 | 3.0 | 6.0 | 0.00 | 0.00 | 0.00 | 57 | 1012.7 |
| 20260508101538 | 47 | 234 | 4.0 | 5.0 | 0.00 | 0.00 | 0.00 | 55 | 1012.7 |
| 20260508100055 | 46 | 260 | 4.0 | 5.0 | 0.00 | 0.00 | 0.00 | 57 | 1012.8 |
| 20260508094541 | 44 | 289 | 2.0 | 4.0 | 0.00 | 0.00 | 0.00 | 58 | 1012.7 |
| 20260508093039 | 42 | 267 | 3.0 | 6.0 | 0.00 | 0.00 | 0.00 | 59 | 1012.7 |
| 20260508091602 | 41 | 224 | 3.0 | 5.0 | 0.00 | 0.00 | 0.00 | 59 | 1012.9 |
| 20260508090043 | 41 | 249 | 3.0 | 12.0 | 0.00 | 0.00 | 0.00 | 55 | 1012.8 |
| 20260508084538 | 44 | 320 | 0.0 | 2.0 | 0.00 | 0.00 | 0.00 | 52 | 1012.5 |
| 20260508083037 | 45 | 320 | 1.0 | 4.0 | 0.00 | 0.00 | 0.00 | 51 | 1012.3 |
| 20260508081553 | 46 | 320 | 2.0 | 4.0 | 0.00 | 0.00 | 0.00 | 51 | 1012.4 |
| 20260508080035 | 46 | 261 | 1.0 | 7.0 | 0.00 | 0.00 | 0.00 | 49 | 1012.7 |
| 20260508074538 | 47 | 295 | 5.0 | 9.0 | 0.00 | 0.00 | 0.00 | 48 | 1012.7 |
| 20260508073044 | 48 | 340 | 8.0 | 10.0 | 0.00 | 0.00 | 0.00 | 48 | 1012.6 |
| 20260508071539 | 46 | 310 | 6.0 | 10.0 | 0.00 | 0.00 | 0.00 | 51 | 1012.6 |
| 20260508070040 | 45 | 250 | 4.0 | 11.0 | 0.00 | 0.00 | 0.00 | 51 | 1012.7 |
| 20260508064540 | 47 | 0 | 0.0 | 3.0 | 0.00 | 0.00 | 0.00 | 47 | 1012.4 |
| 20260508063038 | 49 | 0 | 0.0 | 4.0 | 0.00 | 0.00 | 0.00 | 45 | 1012.3 |
| 20260508061541 | 51 | 0 | 0.0 | 5.0 | 0.00 | 0.00 | 0.00 | 41 | 1012.2 |
| 20260508060053 | 52 | 68 | 2.0 | 4.0 | 0.00 | 0.00 | 0.00 | 41 | 1012.1 |
| 20260508054609 | 53 | 0 | 0.0 | 4.0 | 0.00 | 0.00 | 0.00 | 43 | 1012.2 |
| 20260508053048 | 55 | 335 | 6.0 | 9.0 | 0.00 | 0.00 | 0.00 | 43 | 1012.3 |
| 20260508051541 | 53 | 329 | 8.0 | 9.0 | 0.00 | 0.00 | 0.00 | 48 | 1012.2 |
| 20260508050037 | 53 | 275 | 1.0 | 4.0 | 0.00 | 0.00 | 0.00 | 49 | 1012.3 |
| 20260508044537 | 54 | 229 | 3.0 | 7.0 | 0.00 | 0.00 | 0.00 | 49 | 1012.5 |
| 20260508043041 | 55 | 297 | 2.0 | 5.0 | 0.00 | 0.00 | 0.00 | 46 | 1012.4 |
| 20260508041542 | 56 | 283 | 6.0 | 9.0 | 0.00 | 0.00 | 0.00 | 45 | 1012.4 |
| 20260508040039 | 58 | 264 | 3.0 | 5.0 | 0.00 | 0.00 | 0.00 | 43 | 1012.4 |
| 20260508034546 | 60 | 228 | 4.0 | 8.0 | 0.00 | 0.00 | 0.00 | 42 | 1012.2 |
| 20260508033040 | 60 | 254 | 6.0 | 10.0 | 0.00 | 0.00 | 0.00 | 41 | 1012.3 |
| 20260508031537 | 62 | 279 | 3.0 | 10.0 | 0.00 | 0.00 | 0.00 | 39 | 1012.3 |
| 20260508030043 | 62 | 258 | 9.0 | 14.0 | 0.00 | 0.00 | 0.00 | 40 | 1012.1 |
| 20260508024543 | 61 | 247 | 6.0 | 11.0 | 0.00 | 0.00 | 0.00 | 41 | 1011.9 |
| 20260508023037 | 62 | 254 | 2.0 | 10.0 | 0.00 | 0.00 | 0.00 | 39 | 1011.7 |
| 20260508021538 | 62 | 246 | 5.0 | 9.0 | 0.00 | 0.00 | 0.00 | 40 | 1011.5 |
| 20260508020035 | 64 | 208 | 6.0 | 10.0 | 0.00 | 0.00 | 0.00 | 40 | 1011.5 |
| 20260508014539 | 64 | 202 | 10.0 | 20.0 | 0.00 | 0.00 | 0.00 | 41 | 1011.4 |
| 20260508013041 | 64 | 216 | 6.0 | 10.0 | 0.00 | 0.00 | 0.00 | 40 | 1011.4 |
| 20260508011538 | 65 | 247 | 8.0 | 12.0 | 0.00 | 0.00 | 0.00 | 41 | 1011.4 |
| 20260508010047 | 65 | 222 | 11.0 | 20.0 | 0.00 | 0.00 | 0.00 | 39 | 1011.1 |
| 20260508004535 | 66 | 267 | 7.0 | 13.0 | 0.00 | 0.00 | 0.00 | 26 | 1011.3 |
| 20260508003039 | 66 | 313 | 9.0 | 16.0 | 0.00 | 0.00 | 0.00 | 26 | 1011.0 |
| 20260508001536 | 67 | 331 | 17.0 | 22.0 | 0.00 | 0.00 | 0.00 | 25 | 1011.0 |
| 20260508000040 | 67 | 320 | 11.0 | 19.0 | 0.00 | 0.00 | 0.00 | 26 | 1010.8 |
| 20260507234542 | 67 | 272 | 12.0 | 20.0 | 0.00 | 0.00 | 0.00 | 27 | 1010.8 |
| 20260507233038 | 67 | 323 | 15.0 | 20.0 | 0.00 | 0.00 | 0.00 | 27 | 1010.8 |
| 20260507231544 | 67 | 295 | 14.0 | 27.0 | 0.00 | 0.00 | 0.00 | 27 | 1010.8 |
| 20260507230041 | 67 | 317 | 11.0 | 21.0 | 0.00 | 0.00 | 0.00 | 27 | 1010.8 |
| 20260507224537 | 67 | 333 | 16.0 | 24.0 | 0.00 | 0.00 | 0.00 | 28 | 1010.9 |
| 20260507223040 | 66 | 315 | 15.0 | 24.0 | 0.00 | 0.00 | 0.00 | 29 | 1011.1 |
| 20260507221536 | 66 | 305 | 13.0 | 22.0 | 0.00 | 0.00 | 0.00 | 28 | 1011.1 |
| 20260507220037 | 66 | 348 | 14.0 | 26.0 | 0.00 | 0.00 | 0.00 | 29 | 1011.0 |
| 20260507214540 | 67 | 326 | 14.0 | 25.0 | 0.00 | 0.00 | 0.00 | 28 | 1011.2 |
| 20260507213037 | 66 | 293 | 16.0 | 23.0 | 0.00 | 0.00 | 0.00 | 29 | 1011.4 |
| 20260507211541 | 66 | 304 | 15.0 | 24.0 | 0.00 | 0.00 | 0.00 | 29 | 1011.6 |
| 20260507210039 | 66 | 291 | 11.0 | 24.0 | 0.00 | 0.00 | 0.00 | 29 | 1011.6 |
| 20260507204538 | 66 | 275 | 15.0 | 19.0 | 0.00 | 0.00 | 0.00 | 29 | 1011.6 |
| 20260507203038 | 65 | 293 | 16.0 | 23.0 | 0.00 | 0.00 | 0.00 | 29 | 1011.8 |
| 20260507201537 | 65 | 313 | 18.0 | 27.0 | 0.00 | 0.00 | 0.00 | 28 | 1011.8 |
| 20260507200037 | 65 | 313 | 19.0 | 26.0 | 0.00 | 0.00 | 0.00 | 28 | 1011.7 |
| 20260507194534 | 65 | 317 | 16.0 | 23.0 | 0.00 | 0.00 | 0.00 | 30 | 1011.7 |